Location: Erfurt
(50.9688°N, 11.0193°E)
Time: 03:12:50
(UTC+01:00)

Tiangong 2 - Visible Passes

Search period start: 24 November 2017 00:00
Search period end: 04 December 2017 00:00
Orbit: 386 x 392 km, 42.8° (Epoch: 23 November)

Date Brightness Start Highest point End Pass type
(mag) Time Alt. Az. Time Alt. Az. Time Alt. Az.
27 Nov 4.3 06:51:39 10° S 06:52:32 11° SSE 06:53:25 10° SE visible
29 Nov 3.9 06:30:45 10° SSW 06:32:35 14° SSE 06:34:25 10° SE visible
30 Nov 4.0 05:33:33 10° S 05:34:36 11° SSE 05:35:39 10° SE visible
30 Nov 3.6 07:08:20 10° SW 07:10:41 19° S 07:13:02 10° SE visible
01 Dec 3.6 06:10:27 10° SW 06:12:37 17° S 06:14:49 10° SE visible
02 Dec 3.9 05:15:04 14° SSE 05:15:04 14° SSE 05:16:27 10° SE visible
02 Dec 3.4 06:48:23 10° SW 06:50:44 19° S 06:53:05 10° SE visible
03 Dec 3.2 05:51:55 18° SSW 05:52:38 19° S 05:54:59 10° SE visible
